Terug naar catalogus

YAOGAN-30 G

ActiefMilitairVLEO
NORAD 43081·PAYLOAD·🇨🇳 China

Gelanceerd Dec 25, 2017 vanaf Xichang Satellite Launch Center

Loading…

Volgende Passages (komende 24 uur)

TLE

VersSource: Space-Track

Epoch: Sep 14, 2026, 21:41 UTC

1 43081U 17085A   26257.90380280  .00002008  00000-0  14834-3 0  9992
2 43081  34.9968 323.1102 0004900 220.8108 139.2234 15.03008669476226

Volg YAOGAN-30 G in realtime met AllMySat

Download on the App Store